Flag for Syria Weather past 2 weeks in Damascus, Syria

Now
97 °F

Sunny.


Feels Like: 93 °F
Forecast: 66 / 97 °F
Wind: 16 mph from Southwest

Location: Damascus Int. Airport

Current Time: Jul 29, 2015 at 7:15:07 PM

Latest Report: Jul 29, 2015 at 6:00 PM


Visibility: 10 mi

Pressure: 29.71 "Hg (27.53 "Hg at 689m altitude)

Humidity: 17%

Dew point: 45 °F

Location of DamascusLocation

Historic Weather in Damascus — Graph

°F

Damascus temperature yesterday

Maximum temperature yesterday: 102 °F (at 4:00 PM)
Minimum temperature yesterday: 59 °F (at 10:00 PM)
Average temperature yesterday: 82 °F

Past Weeks' High & Low Weather Summary

 TemperatureHumidityPressure
High106 °F (Jul 18, 5:00 PM)100% (Jul 28, 10:00 PM)29.89 "Hg (Jul 28, 10:00 PM)
Low59 °F (Jul 23, 6:00 AM)6% (Jul 22, 7:00 PM)29.65 "Hg (Jul 19, 5:00 PM)
Average85 °F39%29.77 "Hg
* Reported Jul 16 2:00 PM — Jul 29 6:00 PM, Damascus, Weather by CustomWeather, © 2015

Note: Actual official high and low records may vary slightly from our data, if they occured in-between our weather recording intervals... More about our weather records

Advertising

Damascus weather history for previous 24 hours

 ConditionsComfort  
Time TempWeatherWind HumidityBarometerVisibility
6:00 PM
Wed, Jul 29
97 °FSunny.16 mph17%29.71 "Hg10 mi
5:00 PM100 °FSunny.14 mph14%29.71 "Hg10 mi
4:00 PM102 °FSunny.9 mph11%29.71 "Hg10 mi
3:00 PM102 °FSunny.9 mph11%29.71 "Hg10 mi
2:00 PM100 °FSunny.9 mph12%29.74 "Hg10 mi
1:00 PM99 °FSunny.5 mph13%29.77 "Hg10 mi
12:00 PM93 °FSunny.5 mph26%29.77 "Hg10 mi
11:00 AM88 °FSunny.5 mph33%29.80 "Hg10 mi
10:00 AM84 °FSunny.5 mph40%29.80 "Hg10 mi
9:00 AM79 °FSunny.5 mph54%29.80 "Hg10 mi
8:00 AM73 °FSunny.12 mph69%29.80 "Hg10 mi
7:00 AM70 °FSunny.9 mph78%29.80 "Hg10 mi
6:00 AM68 °FClear.9 mph83%29.77 "Hg10 mi
5:00 AM70 °FClear.9 mph73%29.77 "Hg10 mi
4:00 AM70 °FClear.12 mph78%29.77 "Hg10 mi
3:00 AM70 °FClear.9 mph78%29.77 "Hg10 mi
2:00 AM72 °FClear.9 mph73%29.77 "Hg10 mi
12:00 AM75 °FClear.16 mph65%29.77 "Hg10 mi
11:00 PM
Tue, Jul 28
79 °FClear.16 mph51%29.77 "Hg10 mi
10:00 PM59 °FClear.23 mph100%29.74 "Hg10 mi
9:00 PM84 °FClear.18 mph33%29.74 "Hg10 mi
8:00 PM88 °FSunny.23 mph29%29.71 "Hg10 mi
7:00 PM95 °FSunny.21 mph18%29.68 "Hg10 mi
Weather by CustomWeather, © 2015

See weather overviewHow to use our weather pages